User: anonymous   Login
Location: Unspecified
(0.0000°N, 0.0000°E)
Time: 02:01:33
(UTC+00:00)
Language:

SR - Orbit

View from above orbital plane
View from above orbital plane
View from above satellite
View from above satellite

Ground track
Ground track

The orbit data is extracted from the following two-line orbital elements,

1    46U 60007B   19145.10702075 -.00000028  00000-0  17644-4 0  9992
2    46  66.6918  18.5034 0203696  60.3064 301.8149 14.49226964 82681
Epoch (UTC): 25 May 2019 02:34:06
Eccentricity: 0.0203696
inclination: 66.6918°
perigee height: 583 km
apogee height: 873 km
right ascension of ascending node: 18.5034°
argument of perigee: 60.3064°
revolutions per day: 14.49226964
mean anomaly at epoch: 301.8149°
orbit number at epoch: 8268

The dashed part of the orbit path shows where the satellite is in the earth's shadow,  

DLR